7 * 24
多渠道服务支持
STARLINK-11499 是 SpaceX Starlink 卫星互联网项目中的一颗低轨卫星,属于第二代 Starlink 卫星星座的一部分。该卫星于2023年发射,旨在为全球用户提供高速、低延迟的宽带互联网服务。它运行在约550公里高的近地轨道,配备先进通信设备,支持Ka和Ku频段传输。Starlink项目致力于构建全球覆盖的卫星网络,尤其服务于偏远和网络基础设施薄弱的地区。STARLINK-11499 的部署有助于提升网络容量与连接稳定性。
美国
(US)
| 数据来源 | 国际轨道数据 |
| 星历时间: | 2025-11-02T03:34:08+0800 1天前 查看轨道信息 |
| 半长轴: | 6734.119km |
| 偏心率: | 0.0002511 |
| 轨道倾角: | 43.000° |
| 近地点辐角 | 246.096° |
| 升交点赤经 | 108.048° |
| 平近点角 | 113.965° |
| 近地点: | 354.293km |
| 远地点: | 357.675km |
| 周期: | 91.660分钟 |
| 每日圈数: | 15.710197 |